This demonstration page uses our WeatherBlox Daily Observations layout. Learn more.

Left ArrowRight Arrow

41.12389, -100.76542

Hourly Observations for June 30, 2018

Temp ( °F °C ) Dew Point ( °F °C ) Humidity (%) Winds ( mph kmh ) Pressure ( in mb ) Visibility ( mi km ) Precip ( " mm )
12:53 am 00:53 Clear 74 23.3 69 20.6 85 85 ENE 16 26 29.72 1006 10 16 0.00 0.00
1:53 am 01:53 Clear 73 22.8 68 20 84 84 ENE 16 26 29.77 1008 10 16 0.00 0.00
2:53 am 02:53 Mostly Clear 68 20 63 17.2 84 84 NE 23 37 29.76 1008 10 16 0.00 0.00
3:53 am 03:53 Clear 66 18.9 58 14.4 75 75 ENE 15 24 29.78 1009 10 16 0.00 0.00
4:50 am 04:50 Mostly Cloudy with Nearby Thunderstorms 66 19 61 16 83 83 ESE 13 20 29.80 1009 10 16 0.00 0.00
4:53 am 04:53 Cloudy with Nearby Thunderstorms 67 19.4 60 15.6 79 79 SE 13 20 29.82 1010 10 16 0.00 0.00
5:01 am 05:01 Cloudy with Thunderstorms 67 19.4 61 16.1 81 81 ESE 8 13 29.80 1009 9 14 0.00 0.03
5:23 am 05:23 Cloudy with Nearby Thunderstorms 67 19.4 62 16.7 84 84 S 15 24 29.83 1010 7 11 0.05 1.27
5:53 am 05:53 Cloudy 68 20 63 17.2 84 84 ENE 14 22 29.83 1010 10 16 0.06 1.52
6:30 am 06:30 Cloudy 69 20.6 64 17.8 84 84 ENE 7 11 29.85 1011 10 16 0.00 0.00
6:53 am 06:53 Cloudy 67 19.4 64 17.8 91 91 NE 14 22 29.86 1011 10 16 0.00 0.00
7:02 am 07:02 Cloudy 68 20 65 18.3 90 90 NE 14 22 29.85 1011 10 16 0.00 0.00
7:25 am 07:25 Cloudy 67 19.4 65 18.3 93 93 N 10 17 29.83 1010 10 16 0.00 0.00
7:53 am 07:53 Cloudy 68 20 65 18.3 90 90 VRB 5 7 29.85 1011 10 16 0.00 0.00
8:00 am 08:00 Mostly Cloudy 68 20 66 18.9 93 93 E 10 17 29.83 1010 10 16 0.00 0.00
8:53 am 08:53 Sunny 71 21.7 66 18.9 84 84 ENE 15 24 29.83 1010 10 16 0.00 0.00
9:53 am 09:53 Mostly Sunny 73 22.8 64 17.8 74 74 E 20 31 29.83 1010 10 16 0.00 0.00
10:53 am 10:53 Mostly Cloudy 76 24.4 62 16.7 62 62 E 17 28 29.83 1010 10 16 0.00 0.00
11:53 am 11:53 Cloudy 75 23.9 64 17.8 69 69 E 14 22 29.85 1011 10 16 0.00 0.00
12:53 pm 12:53 Cloudy 76 24.4 63 17.2 64 64 E 12 19 29.87 1011 10 16 0.00 0.00
1:53 pm 13:53 Cloudy 75 23.9 62 16.7 64 64 E 13 20 29.88 1012 10 16 0.00 0.00
2:53 pm 14:53 Cloudy 75 23.9 62 16.7 64 64 ENE 16 26 29.89 1012 10 16 0.00 0.00
3:53 pm 15:53 Cloudy 77 25 63 17.2 62 62 ENE 15 24 29.87 1012 10 16 0.00 0.00
4:53 pm 16:53 Cloudy 74 23.3 64 17.8 71 71 NE 16 26 29.88 1012 10 16 0.00 0.00
5:53 pm 17:53 Cloudy 73 22.8 64 17.8 74 74 ENE 15 24 29.84 1011 10 16 0.00 0.03
6:53 pm 18:53 Cloudy 73 22.8 65 18.3 76 76 E 15 24 29.81 1009 10 16 0.00 0.03
7:53 pm 19:53 Cloudy 71 21.7 66 18.9 84 84 WNW 16 26 29.88 1012 10 16 0.00 0.00
7:59 pm 19:59 Cloudy with Nearby Thunderstorms 66 18.9 59 15 78 78 NNW 31 50 29.88 1012 10 16 0.00 0.00
8:09 pm 20:09 Cloudy with Thunderstorms 61 16.1 59 15 93 93 NNW 18 30 29.91 1013 10 16 0.00 0.03
8:21 pm 20:21 Cloudy with Nearby Thunderstorms 61 16.1 60 15.6 97 97 NNW 14 22 29.91 1013 6 10 0.04 1.02
8:45 pm 20:45 Cloudy with Light Rain 60 15.6 60 15.6 100 100 NNW 13 20 29.91 1013 10 16 0.05 1.27
8:53 pm 20:53 Cloudy with Light Rain 61 16.1 60 15.6 97 97 NW 18 30 29.93 1014 10 16 0.05 1.27
9:13 pm 21:13 Cloudy with Light Rain 61 16.1 60 15.6 97 97 NNW 24 39 29.94 1014 10 16 0.02 0.51
9:53 pm 21:53 Cloudy 61 16.1 57 13.9 87 87 N 20 31 29.97 1015 10 16 0.02 0.51
10:00 pm 22:00 Cloudy 61 16.1 57 13.9 87 87 N 23 37 29.97 1015 10 16 0.00 0.00
10:53 pm 22:53 Mostly Cloudy 62 16.7 55 12.8 78 78 NNE 23 37 29.92 1013 10 16 0.00 0.00
11:53 pm 23:53 Mostly Cloudy 61 16.1 56 13.3 84 84 E 24 39 29.88 1012 10 16 0.00 0.00

Powered by AerisWeather